{"data":{"norad_id":62795,"intl_designator":"2025-016L","name":"QIANFAN-65","alt_names":[],"object_type":"PAYLOAD","status":"ACTIVE","operator":null,"country":"PRC","launch_date":"2025-01-23","launch_site_code":"TAISC","launch_vehicle":null,"mission":null,"orbit_class":"UNKNOWN","rcs_meters":null,"size_class":null,"mass_kg":null,"dimensions":null,"purposes":[],"wikipedia_slug":null,"has_3d_model":false,"image_url":null,"decayed_at":null,"tle_current":{"epoch":"2026-09-22T21:50:12.239232Z","epoch_age_seconds":109956,"freshness":"FRESH","line1":"1 62795U 25016L   26265.90986388  .00000055  00000+0  65966-4 0  9990","line2":"2 62795  88.9657  73.5051 0012361 238.2083 121.7865 13.51023912 85611","mean_motion":13.51023912,"eccentricity":0.0012361,"inclination_deg":88.9657,"raan_deg":73.5051,"arg_perigee_deg":238.2083,"mean_anomaly_deg":121.7865,"bstar":6.5966e-5,"rev_number":8561,"period_min":106.58582629143,"perigee_km":1059.2889376038,"apogee_km":1077.6984980645,"semimajor_km":7446.6307178341,"source":"CELESTRAK","updated_at":"2026-09-23T09:00:21.635989Z"}}}